JBU623 KJFK-KLAX

Flight info

Callsign JBU623
Flight time N/A
Altitude 32000
Route RBV Q430 AIR J80 MCI J24 SLN J102 RYLIE/N0459F340 J102 ALS J44 RSK J64 TBC JASSE Q90 DNERO ANJLL4
Aircraft A21N/M-SDE2E3FGHIRWXY/LB1

Departure

Time N/A
Airport John F. Kennedy International Airport (KJFK)

Arrival

Time 2026-04-25 22:37
Airport Los Angeles International Airport (KLAX)
Time Latitude Longitude Altitude Speed Heading
2026-04-25 21:22 36.33507 -110.24092 31702 ft 376 kts 254°
2026-04-25 21:22 36.32869 -110.27241 31699 ft 376 kts 254°
2026-04-25 21:22 36.31593 -110.33506 31695 ft 377 kts 254°
2026-04-25 21:23 36.30303 -110.39802 31700 ft 377 kts 254°
2026-04-25 21:23 36.29015 -110.46093 31695 ft 377 kts 254°
2026-04-25 21:24 36.27714 -110.52408 31696 ft 379 kts 254°
2026-04-25 21:24 36.26418 -110.58733 31698 ft 379 kts 254°
2026-04-25 21:25 36.25112 -110.65051 31704 ft 379 kts 254°
2026-04-25 21:25 36.23804 -110.71370 31701 ft 379 kts 254°
2026-04-25 21:26 36.22487 -110.77697 31702 ft 379 kts 254°
2026-04-25 21:26 36.21172 -110.84023 31707 ft 381 kts 253°
2026-04-25 21:27 36.19848 -110.90345 31706 ft 382 kts 254°
2026-04-25 21:27 36.18504 -110.96757 31703 ft 382 kts 253°
2026-04-25 21:28 36.17176 -111.03078 31711 ft 382 kts 253°
2026-04-25 21:28 36.15836 -111.09436 31707 ft 382 kts 253°
2026-04-25 21:29 36.14496 -111.15782 31710 ft 383 kts 253°
2026-04-25 21:29 36.13141 -111.22169 31696 ft 383 kts 253°
2026-04-25 21:30 36.11940 -111.28608 31711 ft 385 kts 259°
2026-04-25 21:30 36.11448 -111.34092 31708 ft 386 kts 261°
2026-04-25 21:31 36.10772 -111.41805 31706 ft 386 kts 261°
2026-04-25 21:31 36.10167 -111.48392 31703 ft 386 kts 261°
2026-04-25 21:32 36.09561 -111.54938 31725 ft 386 kts 261°
2026-04-25 21:32 36.08952 -111.61524 31714 ft 385 kts 261°
2026-04-25 21:33 36.08335 -111.68107 31716 ft 384 kts 260°
2026-04-25 21:33 36.07717 -111.74665 31744 ft 385 kts 260°
2026-04-25 21:34 36.06968 -111.81214 31796 ft 385 kts 255°
2026-04-25 21:34 36.05168 -111.87433 31868 ft 385 kts 248°
2026-04-25 21:35 36.03193 -111.93526 31913 ft 384 kts 248°
2026-04-25 21:35 36.01226 -111.99655 31937 ft 383 kts 248°
2026-04-25 21:36 35.99259 -112.05793 31962 ft 385 kts 248°
2026-04-25 21:36 35.97280 -112.11948 31976 ft 385 kts 248°
2026-04-25 21:37 35.95957 -112.16058 31984 ft 385 kts 248°
2026-04-25 21:37 35.93320 -112.24249 31980 ft 385 kts 248°
2026-04-25 21:38 35.91333 -112.30386 31957 ft 385 kts 248°
2026-04-25 21:38 35.89345 -112.36523 31922 ft 385 kts 248°
2026-04-25 21:39 35.87362 -112.42624 31888 ft 385 kts 248°
2026-04-25 21:39 35.85365 -112.48768 31819 ft 386 kts 247°
2026-04-25 21:40 35.83361 -112.54915 31808 ft 387 kts 247°
2026-04-25 21:40 35.81358 -112.61059 31801 ft 387 kts 247°
2026-04-25 21:41 35.79686 -112.66167 31810 ft 387 kts 247°
2026-04-25 21:41 35.77678 -112.72302 31812 ft 387 kts 247°
2026-04-25 21:42 35.75660 -112.78445 31814 ft 387 kts 247°
2026-04-25 21:42 35.73632 -112.84605 31813 ft 388 kts 247°
2026-04-25 21:43 35.71601 -112.90763 31801 ft 388 kts 247°
2026-04-25 21:43 35.69566 -112.96918 31806 ft 389 kts 247°
2026-04-25 21:44 35.67526 -113.03080 31797 ft 389 kts 247°
2026-04-25 21:45 35.64473 -113.12279 31785 ft 385 kts 248°
2026-04-25 21:45 35.62444 -113.18363 31784 ft 385 kts 247°
2026-04-25 21:46 35.60427 -113.24414 31764 ft 385 kts 248°
2026-04-25 21:46 35.58399 -113.30496 31766 ft 385 kts 247°
2026-04-25 21:47 35.56360 -113.36579 31748 ft 385 kts 247°
2026-04-25 21:47 35.54319 -113.42653 31756 ft 385 kts 247°
2026-04-25 21:48 35.52270 -113.48745 31750 ft 386 kts 247°
2026-04-25 21:48 35.50219 -113.54832 31741 ft 385 kts 247°
2026-04-25 21:49 35.48170 -113.60911 31742 ft 385 kts 247°
2026-04-25 21:49 35.46118 -113.66980 31760 ft 385 kts 247°
2026-04-25 21:50 35.44068 -113.73004 31796 ft 385 kts 247°
2026-04-25 21:50 35.42004 -113.79064 31820 ft 385 kts 247°
2026-04-25 21:51 35.39944 -113.85118 31854 ft 385 kts 247°
2026-04-25 21:51 35.37883 -113.91167 31874 ft 384 kts 247°
2026-04-25 21:52 35.35822 -113.97219 31890 ft 384 kts 247°
2026-04-25 21:52 35.33757 -114.03252 31886 ft 384 kts 247°
2026-04-25 21:53 35.31690 -114.09290 31853 ft 383 kts 246°
2026-04-25 21:53 35.29629 -114.15288 31843 ft 382 kts 246°
2026-04-25 21:54 35.27561 -114.21284 31795 ft 382 kts 246°
2026-04-25 21:54 35.25491 -114.27276 31765 ft 382 kts 246°
2026-04-25 21:55 35.23433 -114.33230 31735 ft 382 kts 246°
2026-04-25 21:55 35.21365 -114.39212 31724 ft 382 kts 246°
2026-04-25 21:56 35.19297 -114.45162 31715 ft 379 kts 246°
2026-04-25 21:56 35.17230 -114.51105 31713 ft 380 kts 246°
2026-04-25 21:57 35.15164 -114.57044 31757 ft 379 kts 246°
2026-04-25 21:57 35.13097 -114.62972 31759 ft 379 kts 246°
2026-04-25 21:58 35.11033 -114.68917 31751 ft 379 kts 246°
2026-04-25 21:58 35.08985 -114.74802 31747 ft 379 kts 246°
2026-04-25 21:59 35.06923 -114.80726 31745 ft 379 kts 246°
2026-04-25 21:59 35.04859 -114.86641 31731 ft 378 kts 246°
2026-04-25 22:00 35.01437 -114.95302 31742 ft 378 kts 242°
2026-04-25 22:00 34.98982 -115.00973 31735 ft 378 kts 242°
2026-04-25 22:01 34.96523 -115.06643 31738 ft 378 kts 242°
2026-04-25 22:01 34.94482 -115.11342 31737 ft 378 kts 242°
2026-04-25 22:02 34.91620 -115.17923 31749 ft 378 kts 242°
2026-04-25 22:02 34.89154 -115.23577 31747 ft 378 kts 242°
2026-04-25 22:03 34.86687 -115.29233 31747 ft 378 kts 242°
2026-04-25 22:03 34.84217 -115.34882 31748 ft 378 kts 242°
2026-04-25 22:04 34.81745 -115.40526 31758 ft 378 kts 242°
2026-04-25 22:04 34.79290 -115.46181 31754 ft 376 kts 244°
2026-04-25 22:05 34.77148 -115.51946 31759 ft 374 kts 245°
2026-04-25 22:05 34.75028 -115.57727 31760 ft 374 kts 245°
2026-04-25 22:06 34.72903 -115.63504 31763 ft 374 kts 245°
2026-04-25 22:06 34.70777 -115.69258 31765 ft 372 kts 245°
2026-04-25 22:07 34.69017 -115.74025 31766 ft 372 kts 245°
2026-04-25 22:07 34.66535 -115.80733 31770 ft 373 kts 245°
2026-04-25 22:08 34.64422 -115.86429 31764 ft 372 kts 245°
2026-04-25 22:08 34.62298 -115.92159 31763 ft 372 kts 245°
2026-04-25 22:09 34.60186 -115.97901 31780 ft 371 kts 245°
2026-04-25 22:09 34.58079 -116.03615 31768 ft 371 kts 245°
2026-04-25 22:10 34.55965 -116.09331 31773 ft 371 kts 245°
2026-04-25 22:10 34.53854 -116.15034 31771 ft 370 kts 245°
2026-04-25 22:11 34.51746 -116.20711 31761 ft 367 kts 245°
2026-04-25 22:11 34.49669 -116.26302 31753 ft 361 kts 244°
2026-04-25 22:12 34.47565 -116.31956 31770 ft 370 kts 244°
2026-04-25 22:12 34.45801 -116.36687 31772 ft 371 kts 244°
2026-04-25 22:13 34.43324 -116.43315 31758 ft 372 kts 244°
2026-04-25 22:13 34.41162 -116.48971 31477 ft 368 kts 243°
2026-04-25 22:14 34.40027 -116.51735 30987 ft 365 kts 243°
2026-04-25 22:14 34.38898 -116.54472 30454 ft 361 kts 243°
2026-04-25 22:14 34.37783 -116.57181 29962 ft 358 kts 242°
2026-04-25 22:14 34.36679 -116.59862 29382 ft 354 kts 242°
2026-04-25 22:15 34.35580 -116.62518 28818 ft 350 kts 242°
2026-04-25 22:15 34.34497 -116.65135 28315 ft 345 kts 242°
2026-04-25 22:15 34.33444 -116.67680 27831 ft 340 kts 242°
2026-04-25 22:16 34.31383 -116.72798 26859 ft 333 kts 242°
2026-04-25 22:16 34.30393 -116.75273 26390 ft 330 kts 242°
2026-04-25 22:16 34.29397 -116.77762 25906 ft 327 kts 242°
2026-04-25 22:16 34.28408 -116.80226 25433 ft 324 kts 242°
2026-04-25 22:17 34.27425 -116.82669 24985 ft 323 kts 242°
2026-04-25 22:17 34.26441 -116.85106 24513 ft 321 kts 242°
2026-04-25 22:17 34.25464 -116.87527 24056 ft 320 kts 242°
2026-04-25 22:17 34.24490 -116.89941 23591 ft 319 kts 242°
2026-04-25 22:18 34.23519 -116.92341 23069 ft 317 kts 242°
2026-04-25 22:18 34.22552 -116.94734 22562 ft 315 kts 242°
2026-04-25 22:18 34.21588 -116.97114 22085 ft 315 kts 242°
2026-04-25 22:18 34.20755 -116.99560 21630 ft 315 kts 248°
2026-04-25 22:19 34.20066 -117.02070 21158 ft 314 kts 249°
2026-04-25 22:19 34.19401 -117.04565 20694 ft 312 kts 249°
2026-04-25 22:19 34.18740 -117.07034 20258 ft 312 kts 249°
2026-04-25 22:19 34.18069 -117.09525 19823 ft 311 kts 249°
2026-04-25 22:20 34.17399 -117.12008 19415 ft 310 kts 249°
2026-04-25 22:20 34.16729 -117.14479 18990 ft 309 kts 249°
2026-04-25 22:20 34.16056 -117.16948 18614 ft 309 kts 249°
2026-04-25 22:20 34.15382 -117.19400 18295 ft 307 kts 249°
2026-04-25 22:21 34.14707 -117.21843 17837 ft 305 kts 249°
2026-04-25 22:21 34.14040 -117.24263 17405 ft 302 kts 249°
2026-04-25 22:21 34.13381 -117.26657 17006 ft 299 kts 249°
2026-04-25 22:21 34.12728 -117.29036 16625 ft 297 kts 249°
2026-04-25 22:22 34.12079 -117.31391 16243 ft 295 kts 249°
2026-04-25 22:22 34.11432 -117.33737 15871 ft 293 kts 249°
2026-04-25 22:22 34.10788 -117.36069 15490 ft 293 kts 249°
2026-04-25 22:22 34.10153 -117.38410 15129 ft 294 kts 250°
2026-04-25 22:23 34.09564 -117.40784 14745 ft 295 kts 250°
2026-04-25 22:23 34.08980 -117.43154 14353 ft 295 kts 250°
2026-04-25 22:23 34.08393 -117.45523 13967 ft 295 kts 250°
2026-04-25 22:23 34.07811 -117.47861 13604 ft 292 kts 250°
2026-04-25 22:24 34.07230 -117.50181 13264 ft 288 kts 250°
2026-04-25 22:24 34.06645 -117.52473 12911 ft 286 kts 250°
2026-04-25 22:24 34.06058 -117.54763 12555 ft 285 kts 250°
2026-04-25 22:24 34.05471 -117.57055 12160 ft 286 kts 250°
2026-04-25 22:25 34.04882 -117.59359 11756 ft 288 kts 250°
2026-04-25 22:25 34.04291 -117.61665 11378 ft 288 kts 250°
2026-04-25 22:25 34.03703 -117.63964 11024 ft 285 kts 251°
2026-04-25 22:25 34.03131 -117.66197 10816 ft 272 kts 251°
2026-04-25 22:26 34.02582 -117.68344 10550 ft 264 kts 251°
2026-04-25 22:26 34.02126 -117.70457 10239 ft 259 kts 258°
2026-04-25 22:26 34.01893 -117.72611 9933 ft 260 kts 261°
2026-04-25 22:26 34.01694 -117.74778 9555 ft 260 kts 262°
2026-04-25 22:27 34.01495 -117.76916 9183 ft 260 kts 262°
2026-04-25 22:27 34.01291 -117.79085 8818 ft 260 kts 262°
2026-04-25 22:27 34.01085 -117.81252 8487 ft 265 kts 262°
2026-04-25 22:27 34.00869 -117.83484 8235 ft 267 kts 262°
2026-04-25 22:28 34.00656 -117.85698 7949 ft 265 kts 262°
2026-04-25 22:28 34.00442 -117.87906 7625 ft 264 kts 261°
2026-04-25 22:28 34.00226 -117.90105 7296 ft 264 kts 262°
2026-04-25 22:28 34.00009 -117.92304 6937 ft 265 kts 262°
2026-04-25 22:29 33.99793 -117.94522 6572 ft 266 kts 262°
2026-04-25 22:29 33.99576 -117.96710 6363 ft 258 kts 263°
2026-04-25 22:29 33.99366 -117.98810 6217 ft 247 kts 262°
2026-04-25 22:30 33.98968 -118.02762 5973 ft 233 kts 262°
2026-04-25 22:30 33.98775 -118.04665 5858 ft 226 kts 262°
2026-04-25 22:30 33.98590 -118.06517 5726 ft 219 kts 262°
2026-04-25 22:30 33.98529 -118.07128 5652 ft 218 kts 261°
2026-04-25 22:31 33.98268 -118.10106 5138 ft 211 kts 261°
2026-04-25 22:31 33.98095 -118.11836 4830 ft 206 kts 261°
2026-04-25 22:31 33.97928 -118.13504 4619 ft 195 kts 260°
2026-04-25 22:31 33.97764 -118.15100 4359 ft 189 kts 261°
2026-04-25 22:32 33.97658 -118.16144 4192 ft 189 kts 261°
2026-04-25 22:32 33.97499 -118.17709 3907 ft 187 kts 260°
2026-04-25 22:32 33.97342 -118.19256 3640 ft 185 kts 260°
2026-04-25 22:32 33.97188 -118.20778 3371 ft 181 kts 259°
2026-04-25 22:33 33.97036 -118.22270 3113 ft 178 kts 258°
2026-04-25 22:33 33.96885 -118.23742 2867 ft 172 kts 259°
2026-04-25 22:33 33.96743 -118.25132 2620 ft 166 kts 258°
2026-04-25 22:33 33.96603 -118.26503 2407 ft 162 kts 261°
2026-04-25 22:34 33.96470 -118.27801 2205 ft 151 kts 260°
2026-04-25 22:34 33.96347 -118.29014 1996 ft 141 kts 259°
2026-04-25 22:34 33.96228 -118.30181 1814 ft 139 kts 256°
2026-04-25 22:34 33.96109 -118.31346 1624 ft 141 kts 259°
2026-04-25 22:35 33.95990 -118.32505 1442 ft 139 kts 258°
2026-04-25 22:35 33.95871 -118.33674 1243 ft 142 kts 259°
2026-04-25 22:35 33.95751 -118.34854 1051 ft 142 kts 260°
2026-04-25 22:35 33.95631 -118.36037 872 ft 140 kts 261°
2026-04-25 22:36 33.95511 -118.37204 664 ft 141 kts 260°
2026-04-25 22:36 33.95403 -118.38366 438 ft 138 kts 261°
2026-04-25 22:36 33.95303 -118.39517 293 ft 138 kts 259°
2026-04-25 22:36 33.95170 -118.40641 145 ft 135 kts 260°
2026-04-25 22:37 33.95057 -118.41664 131 ft 99 kts 260°
2026-04-25 22:37 33.95008 -118.42139 131 ft 27 kts 266°
2026-04-25 22:37 33.94983 -118.42359 131 ft 27 kts 261°
2026-04-25 22:37 33.94919 -118.42579 131 ft 29 kts 235°
2026-04-25 22:38 33.94776 -118.42749 130 ft 31 kts 210°
2026-04-25 22:38 33.94653 -118.42779 129 ft 6 kts 169°
2026-04-25 22:38 33.94632 -118.42731 130 ft 8 kts 88°
2026-04-25 22:38 33.94639 -118.42675 131 ft 4 kts 74°
2026-04-25 22:39 33.94643 -118.42630 131 ft 7 kts 88°
2026-04-25 22:39 33.94648 -118.42565 131 ft 9 kts 83°
2026-04-25 22:39 33.94651 -118.42526 131 ft 0 kts 83°
2026-04-25 22:40 33.94653 -118.42507 127 ft 4 kts 82°
2026-04-25 22:40 33.94659 -118.42461 130 ft 7 kts 82°
2026-04-25 22:41 33.94668 -118.42385 129 ft 11 kts 82°
2026-04-25 22:41 33.94674 -118.42337 131 ft 0 kts 85°
2026-04-25 22:41 33.94675 -118.42322 128 ft 5 kts 85°
2026-04-25 22:41 33.94681 -118.42260 131 ft 11 kts 83°
2026-04-25 22:42 33.94693 -118.42145 129 ft 17 kts 83°
2026-04-25 22:42 33.94709 -118.41984 131 ft 21 kts 82°
2026-04-25 22:42 33.94728 -118.41803 129 ft 23 kts 83°
2026-04-25 22:42 33.94748 -118.41609 126 ft 24 kts 83°
2026-04-25 22:43 33.94767 -118.41431 131 ft 8 kts 72°
2026-04-25 22:43 33.94784 -118.41364 131 ft 9 kts 81°
2026-04-25 22:43 33.94760 -118.41296 130 ft 11 kts 157°
2026-04-25 22:43 33.94704 -118.41237 131 ft 14 kts 82°
2026-04-25 22:44 33.94730 -118.41120 130 ft 16 kts 84°
2026-04-25 22:44 33.94744 -118.40979 131 ft 18 kts 82°
2026-04-25 22:44 33.94760 -118.40826 127 ft 20 kts 84°
2026-04-25 22:44 33.94777 -118.40656 130 ft 21 kts 82°
2026-04-25 22:45 33.94796 -118.40472 131 ft 23 kts 83°
2026-04-25 22:45 33.94811 -118.40296 131 ft 12 kts 105°
2026-04-25 22:45 33.94741 -118.40258 128 ft 10 kts 176°
2026-04-25 22:45 33.94666 -118.40250 128 ft 12 kts 170°
2026-04-25 22:46 33.94647 -118.40194 127 ft 2 kts 82°
2026-04-25 22:46 33.94648 -118.40184 129 ft 0 kts 83°